EW6913 Sykia GR current weather conditions

sailwx.info

Wind from 215

Air temperature 12.2° C
Dewpoint 5.2° C

Last reported at 2019-Dec-09 18:00 UTC.
Time now 2019-Dec-09 18:53 UTC

Location: N 38°04' E 022°40'.
View on Google Maps.

See reports from other nearby stations

  
Tides and Currents Weather Stations Pressure Air Temp Water Temp Dewpoint Dewpoint Depression Visibility Wind Speed Wind Dir Waves Ship Positions
date/time (UTC)wind fromknots sea level pressurealtimeterstation pressurevisibilityair tempwater tempwave heightnotes
2019-Dec-09 18:00 215 12.2
2019-Dec-09 17:55 215 0 gusting 1 12.2
2019-Dec-09 17:50 215 1 gusting 2 12.2
2019-Dec-09 17:39 215 0 gusting 2 12.2
2019-Dec-09 17:30 215 12.2
2019-Dec-09 17:25 215 0 gusting 2 12.2
2019-Dec-09 17:20 215 1 gusting 3 12.2
2019-Dec-09 17:15 216 1 gusting 3 12.2
2019-Dec-09 17:10 215 1 gusting 3 12.2
2019-Dec-09 17:05 206 1 gusting 3 11.7
2019-Dec-09 17:00 336 1 gusting 4 11.7
2019-Dec-09 16:55 013 1 gusting 4 11.7
2019-Dec-09 16:45 014 0 gusting 3 11.7
2019-Dec-09 16:40 014 0 gusting 3 11.7
2019-Dec-09 16:35 014 0 gusting 2 11.7
2019-Dec-09 16:30 014 0 gusting 2 11.7
2019-Dec-09 16:25 015 0 gusting 3 11.7
2019-Dec-09 16:20 015 0 gusting 3 11.7
2019-Dec-09 16:15 015 0 gusting 2 11.7
2019-Dec-09 16:10 015 0 gusting 2 12.2
2019-Dec-09 16:05 016 0 gusting 3 12.2
2019-Dec-09 16:00 017 0 gusting 3 12.8
2019-Dec-09 15:55 017 1 gusting 3 12.8
2019-Dec-09 15:50 017 1 gusting 3 12.8
2019-Dec-09 15:45 017 1 gusting 3 12.8
2019-Dec-09 15:40 017 1 gusting 3 13.3
2019-Dec-09 15:35 017 2 gusting 3 12.8
2019-Dec-09 15:30 017 1 gusting 3 12.8
2019-Dec-09 15:25 017 1 gusting 3 12.8
2019-Dec-09 15:20 017 1 gusting 3 12.8
2019-Dec-09 15:15 017 1 gusting 3 12.8
2019-Dec-09 15:10 017 1 gusting 3 13.3
2019-Dec-09 15:04 017 1 gusting 2 13.3
2019-Dec-09 14:59 017 1 gusting 2 13.3
2019-Dec-09 14:54 017 0 gusting 2 13.9
2019-Dec-09 14:49 017 0 gusting 2 14.4
2019-Dec-09 14:44 019 1 gusting 3 14.4
2019-Dec-09 14:39 019 0 gusting 3 15.0
2019-Dec-09 14:34 019 15.6
2019-Dec-09 14:28 019 16.1
2019-Dec-09 14:23 019 16.1
2019-Dec-09 14:18 019 16.1
2019-Dec-09 14:13 019 16.1
2019-Dec-09 14:08 019 16.7
2019-Dec-09 14:03 019 16.7
2019-Dec-09 13:58 019 16.7
2019-Dec-09 13:53 019 16.7
2019-Dec-09 13:48 019 16.7
2019-Dec-09 13:43 019 16.7
2019-Dec-09 13:38 019 16.7
2019-Dec-09 13:33 019 16.7
2019-Dec-09 13:28 019 16.7
2019-Dec-09 13:23 019 16.7
2019-Dec-09 13:18 019 16.7
2019-Dec-09 13:13 019 0 gusting 1 16.7
2019-Dec-09 13:08 019 0 gusting 1 16.7
2019-Dec-09 13:03 019 0 gusting 1 16.7
2019-Dec-09 12:58 019 0 gusting 1 16.7
2019-Dec-09 12:53 019 16.1
2019-Dec-09 12:48 019 16.1
2019-Dec-09 12:42 019 0 gusting 2 16.1
2019-Dec-09 12:37 019 1 gusting 2 16.1
2019-Dec-09 12:32 019 1 gusting 2 16.1
2019-Dec-09 12:28 019 1 gusting 2 16.1
2019-Dec-09 12:22 019 1 gusting 2 16.1
2019-Dec-09 12:17 019 1 gusting 2 16.1
2019-Dec-09 12:12 019 1 gusting 3 16.1
2019-Dec-09 12:07 019 1 gusting 3 16.1
2019-Dec-09 12:02 019 1 gusting 3 16.1
2019-Dec-09 11:57 019 1 gusting 4 16.1
2019-Dec-09 11:52 019 2 gusting 4 16.1
2019-Dec-09 11:47 019 1 gusting 3 16.1
2019-Dec-09 11:42 019 1 gusting 2 16.1
2019-Dec-09 11:37 019 1 gusting 4 16.1
2019-Dec-09 11:32 019 2 gusting 4 16.1
2019-Dec-09 11:27 019 2 gusting 3 16.1
2019-Dec-09 11:22 019 2 gusting 3 16.1
2019-Dec-09 11:17 019 2 gusting 3 16.1
2019-Dec-09 11:12 017 2 gusting 3 16.1
2019-Dec-09 11:07 017 2 gusting 3 16.1
2019-Dec-09 11:02 017 1 gusting 3 16.1
2019-Dec-09 10:57 017 1 gusting 3 16.1
2019-Dec-09 10:52 017 1 gusting 3 16.1
2019-Dec-09 10:47 017 2 gusting 4 16.1
2019-Dec-09 10:42 355 2 gusting 4 16.1
2019-Dec-09 10:37 052 2 gusting 3 16.1
2019-Dec-09 10:32 052 2 gusting 4 15.6
2019-Dec-09 10:27 052 2 gusting 4 15.6
2019-Dec-09 10:22 052 2 gusting 4 15.6
2019-Dec-09 10:17 052 2 gusting 4 15.6
2019-Dec-09 10:12 052 2 gusting 3 15.6
2019-Dec-09 10:07 052 2 gusting 3 15.6
2019-Dec-09 10:02 052 2 gusting 4 15.6
2019-Dec-09 09:57 052 2 gusting 4 15.6
2019-Dec-09 09:52 052 1 gusting 3 15.6
2019-Dec-09 09:47 051 1 gusting 3 15.6
2019-Dec-09 09:42 051 2 gusting 3 15.6
2019-Dec-09 09:37 051 2 gusting 3 15.6
2019-Dec-09 09:32 051 2 gusting 4 15.6
2019-Dec-09 09:27 051 2 gusting 4 15.6
2019-Dec-09 09:22 042 2 gusting 4 15.6
2019-Dec-09 09:17 042 3 gusting 4 15.6
2019-Dec-09 09:12 039 2 gusting 4 16.1
2019-Dec-09 09:07 044 2 gusting 4 16.1
2019-Dec-09 09:02 054 3 gusting 4 16.1
2019-Dec-09 08:57 067 3 gusting 4 16.1
2019-Dec-09 08:52 052 3 gusting 4 16.1
2019-Dec-09 08:47 065 2 gusting 4 16.1
2019-Dec-09 08:42 080 2 gusting 6 16.1
2019-Dec-09 08:37 087 3 gusting 6 16.1
2019-Dec-09 08:32 094 3 gusting 6 16.1
2019-Dec-09 08:27 080 3 gusting 4 16.1
2019-Dec-09 08:22 080 3 gusting 6 16.1
2019-Dec-09 08:17 074 2 gusting 6 16.1
2019-Dec-09 08:12 078 2 gusting 4 16.1
2019-Dec-09 08:07 092 1 gusting 3 16.1
2019-Dec-09 08:02 092 1 gusting 3 16.1
2019-Dec-09 07:57 073 0 gusting 3 16.1
2019-Dec-09 07:52 200 16.1
2019-Dec-09 07:47 200 16.1
2019-Dec-09 07:42 200 15.6
2019-Dec-09 07:37 200 15.6
2019-Dec-09 07:32 200 15.0
2019-Dec-09 07:27 200 0 gusting 2 14.4
2019-Dec-09 07:22 200 0 gusting 3 14.4
2019-Dec-09 07:17 200 0 gusting 3 13.9
2019-Dec-09 07:12 200 0 gusting 2 13.3
2019-Dec-09 07:07 200 0 gusting 2 13.3
2019-Dec-09 07:02 200 0 gusting 1 12.8
2019-Dec-09 06:57 200 0 gusting 2 12.8
2019-Dec-09 06:52 200 1 gusting 2 12.2
2019-Dec-09 06:47 200 1 gusting 3 12.2
2019-Dec-09 06:42 200 1 gusting 3 11.7
2019-Dec-09 06:37 200 2 gusting 3 11.7
2019-Dec-09 06:32 200 2 gusting 3 11.1
2019-Dec-09 06:27 200 2 gusting 3 10.6
2019-Dec-09 06:21 200 1 gusting 3 10.6
2019-Dec-09 06:16 200 1 gusting 3 10.0
2019-Dec-09 06:11 200 1 gusting 3 10.0
2019-Dec-09 06:06 200 0 gusting 2 10.0
2019-Dec-09 06:01 200 1 gusting 3 10.0
2019-Dec-09 05:56 200 1 gusting 3 10.0
2019-Dec-09 05:51 200 0 gusting 2 9.4
2019-Dec-09 05:46 200 0 gusting 1 9.4
2019-Dec-09 05:41 200 0 gusting 2 9.4
2019-Dec-09 05:36 200 0 gusting 2 10.0
2019-Dec-09 05:31 200 0 gusting 3 10.0
2019-Dec-09 05:26 200 1 gusting 4 10.0
2019-Dec-09 05:21 200 2 gusting 4 10.0
2019-Dec-09 05:16 201 2 gusting 4 10.0
2019-Dec-09 05:11 201 2 gusting 4 10.0
2019-Dec-09 05:06 201 2 gusting 4 10.0
2019-Dec-09 05:01 201 2 gusting 4 10.0
2019-Dec-09 04:56 201 2 gusting 4 10.0
2019-Dec-09 04:51 201 2 gusting 4 10.0
2019-Dec-09 04:46 201 2 gusting 4 10.0
2019-Dec-09 04:41 201 2 gusting 4 10.0
2019-Dec-09 04:36 202 2 gusting 4 10.0
2019-Dec-09 04:31 202 2 gusting 4 9.4
2019-Dec-09 04:26 202 2 gusting 4 9.4
2019-Dec-09 04:21 203 2 gusting 4 9.4
2019-Dec-09 04:16 203 2 gusting 4 9.4
2019-Dec-09 04:11 205 2 gusting 4 9.4
2019-Dec-09 04:06 205 2 gusting 4 9.4
2019-Dec-09 04:01 205 1 gusting 3 9.4
2019-Dec-09 03:56 205 1 gusting 3 9.4
2019-Dec-09 03:51 205 1 gusting 3 9.4
2019-Dec-09 03:46 205 0 gusting 2 9.4
2019-Dec-09 03:41 205 0 gusting 2 9.4
2019-Dec-09 03:36 205 0 gusting 2 9.4
2019-Dec-09 03:31 205 0 gusting 2 9.4
2019-Dec-09 03:26 205 0 gusting 2 9.4
2019-Dec-09 03:21 205 0 gusting 2 9.4
2019-Dec-09 03:16 205 0 gusting 2 9.4
2019-Dec-09 03:11 205 0 gusting 2 9.4
2019-Dec-09 03:06 205 0 gusting 1 9.4
2019-Dec-09 03:01 205 0 gusting 1 9.4
2019-Dec-09 02:56 205 0 gusting 2 9.4
2019-Dec-09 02:51 205 0 gusting 2 9.4
2019-Dec-09 02:46 205 0 gusting 2 9.4
2019-Dec-09 02:41 205 0 gusting 2 9.4
2019-Dec-09 02:36 205 0 gusting 1 9.4
2019-Dec-09 02:31 205 0 gusting 1 9.4
2019-Dec-09 02:25 205 0 gusting 2 9.4
2019-Dec-09 02:20 205 0 gusting 2 9.4
2019-Dec-09 02:15 205 0 gusting 2 9.4
2019-Dec-09 02:10 205 0 gusting 2 9.4
2019-Dec-09 02:05 205 1 gusting 2 9.4
2019-Dec-09 02:00 205 1 gusting 2 9.4
2019-Dec-09 01:55 205 0 gusting 2 10.0
2019-Dec-09 01:50 205 0 gusting 2 10.0
2019-Dec-09 01:45 205 0 gusting 2 10.0
2019-Dec-09 01:40 205 1 gusting 2 10.0
2019-Dec-09 01:35 205 1 gusting 2 10.0
2019-Dec-09 01:30 205 1 gusting 2 10.0
2019-Dec-09 01:25 205 1 gusting 2 10.0
2019-Dec-09 01:20 205 2 gusting 3 10.0
2019-Dec-09 01:15 205 2 gusting 3 10.0
2019-Dec-09 01:10 205 1 gusting 3 10.0
2019-Dec-09 01:05 205 2 gusting 3 10.0
2019-Dec-09 01:00 205 1 gusting 3 10.0
2019-Dec-09 00:55 205 2 gusting 3 10.0
2019-Dec-09 00:50 205 2 gusting 3 10.0
2019-Dec-09 00:45 205 2 gusting 3 10.0
2019-Dec-09 00:40 205 2 gusting 4 10.0
2019-Dec-09 00:35 205 1 gusting 4 10.0
2019-Dec-09 00:30 205 1 gusting 3 10.0
2019-Dec-09 00:25 205 1 gusting 3 10.0
2019-Dec-09 00:20 205 1 gusting 3 10.0
2019-Dec-09 00:15 205 1 gusting 3 10.0
2019-Dec-09 00:10 205 1 gusting 2 10.0
2019-Dec-09 00:05 205 1 gusting 2 10.0
2019-Dec-09 00:00 205 0 gusting 2 10.0
2019-Dec-08 23:50 205 0 gusting 2 10.0
2019-Dec-08 23:45 205 0 gusting 2 10.0
2019-Dec-08 23:40 205 1 gusting 2 10.0
2019-Dec-08 23:35 205 1 gusting 2 10.0
2019-Dec-08 23:30 205 0 gusting 2 10.0
2019-Dec-08 23:25 205 0 gusting 2 10.0
2019-Dec-08 23:20 205 0 gusting 2 10.0
2019-Dec-08 23:15 205 1 gusting 2 10.6
2019-Dec-08 23:10 205 1 gusting 2 10.6
2019-Dec-08 23:05 205 1 gusting 3 10.6
2019-Dec-08 23:00 205 1 gusting 3 10.6
2019-Dec-08 22:55 205 1 gusting 3 10.6
2019-Dec-08 22:50 205 1 gusting 3 10.6
2019-Dec-08 22:45 207 1 gusting 3 10.6
2019-Dec-08 22:40 207 1 gusting 2 10.6
2019-Dec-08 22:35 207 1 gusting 3 10.6
2019-Dec-08 22:30 207 1 gusting 3 10.6
2019-Dec-08 22:20 207 1 gusting 2 10.6
2019-Dec-08 22:15 207 1 gusting 2 10.6
2019-Dec-08 22:10 207 0 gusting 2 10.6
2019-Dec-08 22:05 207 0 gusting 2 10.6
2019-Dec-08 22:00 207 1 gusting 3 10.6
2019-Dec-08 21:55 207 1 gusting 3 10.6
2019-Dec-08 21:50 207 1 gusting 3 10.6
2019-Dec-08 21:45 207 1 gusting 3 10.6
2019-Dec-08 21:39 207 1 gusting 3 10.0
2019-Dec-08 21:34 207 1 gusting 3 10.0
2019-Dec-08 21:30 207 1 gusting 3 10.6
2019-Dec-08 21:24 207 1 gusting 3 10.6
2019-Dec-08 21:19 207 1 gusting 3 10.6
2019-Dec-08 21:14 207 1 gusting 3 10.6
2019-Dec-08 21:09 207 0 gusting 3 10.6
2019-Dec-08 21:04 207 10.6
2019-Dec-08 20:59 207 0 gusting 2 10.6
2019-Dec-08 20:54 207 1 gusting 2 10.6
2019-Dec-08 20:49 207 0 gusting 3 10.6
2019-Dec-08 20:44 207 0 gusting 3 11.1
2019-Dec-08 20:39 207 1 gusting 4 11.1
2019-Dec-08 20:34 207 1 gusting 4 11.1
2019-Dec-08 20:29 211 1 gusting 4 11.1
2019-Dec-08 20:24 198 1 gusting 4 11.1
2019-Dec-08 20:19 198 2 gusting 4 11.1
2019-Dec-08 20:14 199 2 gusting 4 11.1
2019-Dec-08 20:09 198 2 gusting 4 11.1
2019-Dec-08 20:04 199 2 gusting 4 11.1
2019-Dec-08 19:58 199 1 gusting 4 11.1
2019-Dec-08 19:53 199 1 gusting 3 10.6
2019-Dec-08 19:48 199 1 gusting 3 11.1
2019-Dec-08 19:43 199 1 gusting 3 11.1
2019-Dec-08 19:38 199 1 gusting 2 11.1
2019-Dec-08 19:33 199 2 gusting 3 11.1
2019-Dec-08 19:28 199 1 gusting 3 11.1
2019-Dec-08 19:23 199 1 gusting 3 11.1
2019-Dec-08 19:18 199 1 gusting 3 11.1
2019-Dec-08 19:13 199 2 gusting 3 11.7
2019-Dec-08 19:08 199 2 gusting 3 11.7
2019-Dec-08 19:03 199 2 gusting 4 11.7
2019-Dec-08 18:58 199 2 gusting 5 11.7
2019-Dec-08 18:53 199 2 gusting 5 11.7
2019-Dec-08 18:48 199 2 gusting 4 11.7
2019-Dec-08 18:43 199 2 gusting 4 11.7
2019-Dec-08 18:38 199 2 gusting 3 11.7
2019-Dec-08 18:33 198 2 gusting 4 11.7
2019-Dec-08 18:28 198 2 gusting 4 11.7
2019-Dec-08 18:23 198 2 gusting 4 11.7
2019-Dec-08 18:18 200 2 gusting 4 11.7
2019-Dec-08 18:13 198 2 gusting 4 11.7
2019-Dec-08 18:08 197 2 gusting 4 11.7
2019-Dec-08 18:03 197 2 gusting 4 11.7
2019-Dec-08 17:58 212 2 gusting 4 11.7
2019-Dec-08 17:53 212 2 gusting 4 11.7
2019-Dec-08 17:48 213 1 gusting 4 11.7
2019-Dec-08 17:43 214 1 gusting 3 11.7
2019-Dec-08 17:38 214 1 gusting 3 11.7
2019-Dec-08 17:33 215 1 gusting 3 11.7
2019-Dec-08 17:28 216 1 gusting 3 11.7
2019-Dec-08 17:23 216 1 gusting 3 11.7
2019-Dec-08 17:17 216 1 gusting 3 11.7
2019-Dec-08 17:12 216 1 gusting 3 11.7
2019-Dec-08 17:07 217 1 gusting 3 11.7
2019-Dec-08 17:02 219 1 gusting 3 12.2
2019-Dec-08 16:58 219 1 gusting 3 12.2
2019-Dec-08 16:52 220 1 gusting 3 12.2
2019-Dec-08 16:47 223 1 gusting 3 12.2
2019-Dec-08 16:42 224 1 gusting 3 12.2
2019-Dec-08 16:37 206 0 gusting 3 12.2
2019-Dec-08 16:32 207 0 gusting 4 12.2
2019-Dec-08 16:27 206 1 gusting 4 12.2
2019-Dec-08 16:22 217 0 gusting 3 12.2
2019-Dec-08 16:17 219 1 gusting 3 12.2
2019-Dec-08 16:12 219 1 gusting 3 12.2
2019-Dec-08 16:07 204 1 gusting 3 12.2
2019-Dec-08 16:02 202 2 gusting 3 12.2
2019-Dec-08 15:57 203 2 gusting 4 12.2
2019-Dec-08 15:52 203 2 gusting 4 12.8
2019-Dec-08 15:47 204 1 gusting 4 12.8
2019-Dec-08 15:42 204 2 gusting 4 12.8
2019-Dec-08 15:37 200 2 gusting 4 12.8
2019-Dec-08 15:32 199 2 gusting 4 13.3
2019-Dec-08 15:27 200 2 gusting 4 13.3
2019-Dec-08 15:22 200 2 gusting 4 13.3
2019-Dec-08 15:17 201 2 gusting 3 13.9
2019-Dec-08 15:12 201 2 gusting 4 13.9
2019-Dec-08 15:07 204 2 gusting 4 14.4
2019-Dec-08 15:02 209 1 gusting 4 14.4
2019-Dec-08 14:57 210 1 gusting 4 15.0
2019-Dec-08 14:52 219 1 gusting 2 15.6
2019-Dec-08 14:47 220 1 gusting 2 16.1
2019-Dec-08 14:42 223 0 gusting 2 16.7
2019-Dec-08 14:37 249 0 gusting 1 17.2
2019-Dec-08 14:32 252 0 gusting 1 17.2
2019-Dec-08 14:27 252 0 gusting 1 17.2
2019-Dec-08 14:22 255 0 gusting 2 17.8
2019-Dec-08 14:17 255 0 gusting 2 17.8
2019-Dec-08 14:12 239 0 gusting 3 18.3
2019-Dec-08 14:07 211 18.3
2019-Dec-08 14:02 264 18.3
2019-Dec-08 13:57 264 0 gusting 3 18.3
2019-Dec-08 13:52 265 0 gusting 3 18.9
2019-Dec-08 13:47 238 0 gusting 6 18.9
2019-Dec-08 13:42 269 1 gusting 7 18.9
2019-Dec-08 13:37 302 2 gusting 7 18.9
2019-Dec-08 13:32 290 4 gusting 9 18.9
2019-Dec-08 13:27 321 5 gusting 9 18.9
2019-Dec-08 13:22 316 6 gusting 10 18.9
2019-Dec-08 13:17 301 6 gusting 11 18.9
2019-Dec-08 13:12 317 7 gusting 12 18.9
2019-Dec-08 13:07 321 7 gusting 12 18.3
2019-Dec-08 13:02 326 8 gusting 11 18.3
2019-Dec-08 12:57 299 7 gusting 11 18.3
2019-Dec-08 12:52 336 7 gusting 11 18.3
2019-Dec-08 12:47 327 7 gusting 11 18.3
2019-Dec-08 12:42 340 6 gusting 10 18.3
2019-Dec-08 12:37 317 6 gusting 10 18.3
2019-Dec-08 12:32 335 7 gusting 10 18.3
2019-Dec-08 12:27 317 7 gusting 10 18.3
2019-Dec-08 12:22 314 7 gusting 10 18.3
2019-Dec-08 12:17 305 7 gusting 11 18.3
2019-Dec-08 12:12 336 6 gusting 11 18.9
2019-Dec-08 12:07 327 6 gusting 9 18.9
2019-Dec-08 12:02 332 6 gusting 8 18.9
2019-Dec-08 11:57 321 6 gusting 8 18.9
2019-Dec-08 11:52 315 6 gusting 8 18.9
2019-Dec-08 11:47 322 6 gusting 9 18.9
2019-Dec-08 11:42 317 7 gusting 9 18.9
2019-Dec-08 11:37 332 7 gusting 11 18.9
2019-Dec-08 11:32 331 7 gusting 11 18.9
2019-Dec-08 11:27 317 6 gusting 10 18.9
2019-Dec-08 11:22 323 6 gusting 10 18.9
2019-Dec-08 11:17 313 6 gusting 10 18.9
2019-Dec-08 11:12 325 6 gusting 10 18.9
2019-Dec-08 11:07 324 7 gusting 10 18.9
2019-Dec-08 11:02 317 7 gusting 10 18.3
2019-Dec-08 10:57 309 7 gusting 12 18.3
2019-Dec-08 10:52 317 7 gusting 12 18.3
2019-Dec-08 10:47 322 7 gusting 11 18.3
2019-Dec-08 10:42 315 6 gusting 11 18.3
2019-Dec-08 10:37 299 7 gusting 11 18.3
2019-Dec-08 10:32 311 7 gusting 12 18.3
2019-Dec-08 10:27 320 8 gusting 12 18.3
2019-Dec-08 10:22 321 7 gusting 12 18.3
2019-Dec-08 10:16 295 6 gusting 12 18.3
2019-Dec-08 10:11 297 6 gusting 12 18.3
2019-Dec-08 10:07 284 6 gusting 12 18.3
2019-Dec-08 10:02 315 6 gusting 10 18.3
2019-Dec-08 09:57 316 6 gusting 10 18.3
2019-Dec-08 09:52 313 6 gusting 11 18.3
2019-Dec-08 09:47 306 6 gusting 11 18.3
2019-Dec-08 09:42 298 6 gusting 11 18.3
2019-Dec-08 09:36 291 7 gusting 13 18.3
2019-Dec-08 09:31 327 7 gusting 14 18.3
2019-Dec-08 09:26 328 7 gusting 14 18.3
2019-Dec-08 09:22 317 7 gusting 11 18.3
2019-Dec-08 09:16 321 6 gusting 10 18.3
2019-Dec-08 09:12 331 6 gusting 11 18.3
2019-Dec-08 09:06 307 6 gusting 11 18.3
2019-Dec-08 09:01 289 6 gusting 11 17.8
2019-Dec-08 08:56 300 6 gusting 11 17.8
2019-Dec-08 08:51 323 6 gusting 11 17.8
2019-Dec-08 08:46 288 6 gusting 12 17.8
2019-Dec-08 08:41 318 7 gusting 12 17.8
2019-Dec-08 08:37 332 7 gusting 12 17.8
2019-Dec-08 08:31 323 7 gusting 12 17.8
2019-Dec-08 08:26 278 7 gusting 13 17.2
2019-Dec-08 08:22 313 8 gusting 14 17.2
2019-Dec-08 08:16 308 8 gusting 14 17.8
2019-Dec-08 08:11 332 6 gusting 12 17.8
2019-Dec-08 08:06 294 6 gusting 12 17.8
2019-Dec-08 08:01 304 7 gusting 13 17.8
2019-Dec-08 07:56 297 9 gusting 15 17.8
2019-Dec-08 07:51 332 5 gusting 15 17.8
2019-Dec-08 07:46 294 1 gusting 9 17.2
2019-Dec-08 07:41 279 2 gusting 6 17.2
2019-Dec-08 07:36 243 3 gusting 9 17.2
2019-Dec-08 07:31 313 3 gusting 9 17.2
2019-Dec-08 07:26 313 1 gusting 7 17.2
2019-Dec-08 07:21 296 1 gusting 6 16.7
2019-Dec-08 07:16 282 2 gusting 6 16.7
2019-Dec-08 07:11 337 2 gusting 8 16.7
2019-Dec-08 07:06 304 1 gusting 8 16.1
2019-Dec-08 07:01 327 1 gusting 6 16.1
2019-Dec-08 06:56 299 1 gusting 9 15.6
2019-Dec-08 06:51 229 1 gusting 9 15.6
2019-Dec-08 06:46 244 1 gusting 7 15.6
2019-Dec-08 06:41 287 1 gusting 7 15.0
2019-Dec-08 06:36 255 1 gusting 6 15.0
2019-Dec-08 06:31 240 1 gusting 6 14.4
2019-Dec-08 06:26 221 0 gusting 6 14.4
2019-Dec-08 06:21 296 0 gusting 3 14.4
2019-Dec-08 06:16 120 0 gusting 5 14.4
2019-Dec-08 06:11 261 1 gusting 5 13.9
2019-Dec-08 06:06 255 1 gusting 6 13.9
2019-Dec-08 06:01 246 0 gusting 6 13.3
2019-Dec-08 05:56 247 0 gusting 5 13.3
2019-Dec-08 05:51 302 0 gusting 5 12.8
2019-Dec-08 05:46 235 0 gusting 2 12.8
2019-Dec-08 05:41 274 0 gusting 4 12.8
2019-Dec-08 05:36 300 12.8
2019-Dec-08 05:31 236 12.8
2019-Dec-08 05:26 236 12.8
2019-Dec-08 05:21 236 0 gusting 1 12.8
2019-Dec-08 05:16 236 0 gusting 2 12.8
2019-Dec-08 05:11 236 0 gusting 2 12.8
2019-Dec-08 05:06 236 0 gusting 1 12.8
2019-Dec-08 05:01 233 0 gusting 1 12.8
2019-Dec-08 04:56 221 0 gusting 2 12.8
2019-Dec-08 04:51 213 0 gusting 3 12.8
2019-Dec-08 04:46 238 0 gusting 3 13.3
2019-Dec-08 04:41 245 13.3
2019-Dec-08 04:36 268 0 gusting 2 13.9
2019-Dec-08 04:31 286 0 gusting 2 13.9
2019-Dec-08 04:26 272 13.9
2019-Dec-08 04:21 263 14.4
2019-Dec-08 04:16 263 14.4
2019-Dec-08 04:11 263 0 gusting 5 14.4
2019-Dec-08 04:06 270 0 gusting 5 14.4
2019-Dec-08 04:01 258 0 gusting 5 14.4
2019-Dec-08 03:56 247 0 gusting 2 14.4
2019-Dec-08 03:51 234 0 gusting 4 15.0
2019-Dec-08 03:46 315 0 gusting 4 15.0
2019-Dec-08 03:41 286 1 gusting 7 15.0
2019-Dec-08 03:36 252 1 gusting 10 15.0
2019-Dec-08 03:31 279 2 gusting 10 15.0
2019-Dec-08 03:26 238 1 gusting 9 15.0
2019-Dec-08 03:21 269 1 gusting 5 14.4
2019-Dec-08 03:16 284 1 gusting 6 14.4
2019-Dec-08 03:11 281 1 gusting 6 14.4
2019-Dec-08 03:06 221 2 gusting 7 14.4
2019-Dec-08 03:00 225 2 gusting 8 14.4
2019-Dec-08 02:56 310 1 gusting 8 14.4
2019-Dec-08 02:51 280 1 gusting 5 13.9
2019-Dec-08 02:46 255 0 gusting 4 13.9
2019-Dec-08 02:40 244 1 gusting 3 14.4
2019-Dec-08 02:35 259 1 gusting 3 14.4
2019-Dec-08 02:30 246 0 gusting 3 14.4
2019-Dec-08 02:25 241 0 gusting 3 14.4
2019-Dec-08 02:20 234 1 gusting 6 14.4
2019-Dec-08 02:15 259 1 gusting 7 14.4
2019-Dec-08 02:10 221 1 gusting 7 14.4
2019-Dec-08 02:05 265 0 gusting 3 14.4
2019-Dec-08 02:00 256 0 gusting 2 14.4
2019-Dec-08 01:55 267 0 gusting 3 14.4
2019-Dec-08 01:50 260 0 gusting 4 15.0
2019-Dec-08 01:45 291 0 gusting 5 15.0
2019-Dec-08 01:40 258 1 gusting 5 15.0
2019-Dec-08 01:35 271 1 gusting 7 15.0
2019-Dec-08 01:30 232 1 gusting 7 15.6
2019-Dec-08 01:25 246 2 gusting 7 15.6
2019-Dec-08 01:20 327 2 gusting 11 15.6
2019-Dec-08 01:15 273 1 gusting 11 15.6
2019-Dec-08 01:10 333 1 gusting 6 15.6
2019-Dec-08 01:05 306 1 gusting 6 15.6
2019-Dec-08 01:00 254 1 gusting 6 15.6
2019-Dec-08 00:55 263 2 gusting 8 15.6
2019-Dec-08 00:50 222 2 gusting 8 15.6
2019-Dec-08 00:45 203 1 gusting 6 15.6
2019-Dec-08 00:40 206 1 gusting 6 15.6
2019-Dec-08 00:35 271 1 gusting 8 15.6
2019-Dec-08 00:30 226 2 gusting 8 15.6
2019-Dec-08 00:25 267 2 gusting 8 15.6
2019-Dec-08 00:20 248 2 gusting 7 15.6
2019-Dec-08 00:15 253 1 gusting 6 15.0
2019-Dec-08 00:10 295 1 gusting 7 15.0
2019-Dec-08 00:05 292 2 gusting 11 15.0
2019-Dec-08 00:00 187 2 gusting 11 15.0
2019-Dec-07 23:55 291 2 gusting 6 14.4
2019-Dec-07 23:50 282 1 gusting 6 15.0
2019-Dec-07 23:45 302 1 gusting 6 15.0
2019-Dec-07 23:40 297 1 gusting 5 15.0
2019-Dec-07 23:35 302 0 gusting 3 15.0
2019-Dec-07 23:30 305 0 gusting 3 15.0
2019-Dec-07 23:25 271 0 gusting 3 15.0
2019-Dec-07 23:20 298 1 gusting 5 15.0
2019-Dec-07 23:15 297 2 gusting 9 15.6
2019-Dec-07 23:10 313 2 gusting 9 15.6
2019-Dec-07 23:05 301 1 gusting 8 15.0
2019-Dec-07 23:00 315 1 gusting 7 15.0
2019-Dec-07 22:55 306 2 gusting 6 15.0
2019-Dec-07 22:50 288 2 gusting 6 15.0
2019-Dec-07 22:45 269 2 gusting 6 15.0
2019-Dec-07 22:40 288 1 gusting 6 15.0
2019-Dec-07 22:35 292 1 gusting 5 15.6
2019-Dec-07 22:30 209 2 gusting 7 16.1
2019-Dec-07 22:25 302 5 gusting 10 16.1
2019-Dec-07 22:20 319 6 gusting 10 15.6
2019-Dec-07 22:15 325 3 gusting 8 14.4
2019-Dec-07 22:10 313 0 gusting 6 13.9
2019-Dec-07 22:05 291 0 gusting 3 13.9
2019-Dec-07 22:00 291 0 gusting 3 13.3
2019-Dec-07 21:55 273 0 gusting 2 13.3
2019-Dec-07 21:50 287 1 gusting 4 13.3
2019-Dec-07 21:45 221 2 gusting 4 13.3
2019-Dec-07 21:40 213 1 gusting 3 13.9
2019-Dec-07 21:35 258 0 gusting 4 14.4
2019-Dec-07 21:30 306 0 gusting 4 13.9
2019-Dec-07 21:25 237 1 gusting 3 14.4
2019-Dec-07 21:20 209 1 gusting 3 14.4
2019-Dec-07 21:15 211 1 gusting 4 14.4
2019-Dec-07 21:10 211 1 gusting 4 14.4
2019-Dec-07 21:05 211 0 gusting 4 14.4
2019-Dec-07 21:00 201 1 gusting 4 14.4
2019-Dec-07 20:54 202 1 gusting 4 15.0
2019-Dec-07 20:49 204 1 gusting 3 15.0
2019-Dec-07 20:44 245 1 gusting 3 15.0
2019-Dec-07 20:39 209 1 gusting 3 15.0
2019-Dec-07 20:34 225 1 gusting 2 15.6
2019-Dec-07 20:29 223 1 gusting 5 16.1
2019-Dec-07 20:24 222 1 gusting 7 16.1
2019-Dec-07 20:19 244 1 gusting 7 16.7
2019-Dec-07 20:14 303 1 gusting 5 16.7
2019-Dec-07 20:09 045 0 gusting 4 16.1
2019-Dec-07 20:04 250 0 gusting 3 16.1
2019-Dec-07 19:59 262 0 gusting 3 16.1
2019-Dec-07 19:54 309 1 gusting 6 16.7
2019-Dec-07 19:49 323 3 gusting 11 16.1
2019-Dec-07 19:44 311 3 gusting 11 16.1
2019-Dec-07 19:39 311 2 gusting 8 15.6
2019-Dec-07 19:34 245 0 gusting 3 15.0
2019-Dec-07 19:28 301 0 gusting 5 15.0
2019-Dec-07 19:23 236 0 gusting 5 15.0
2019-Dec-07 19:18 194 0 gusting 2 14.4
2019-Dec-07 19:13 194 0 gusting 2 14.4
2019-Dec-07 19:08 194 0 gusting 4 14.4
2019-Dec-07 19:03 194 2 gusting 4 14.4
2019-Dec-07 18:58 190 1 gusting 4 14.4
2019-Dec-07 18:53 197 0 gusting 3 14.4
2019-Dec-07 18:48 223 0 gusting 2 14.4
2019-Dec-07 18:43 223 0 gusting 2 14.4
2019-Dec-07 18:38 235 0 gusting 3 14.4
2019-Dec-07 18:33 304 0 gusting 3 14.4
2019-Dec-07 18:28 254 0 gusting 3 14.4
2019-Dec-07 18:23 288 0 gusting 6 14.4
2019-Dec-07 18:18 277 0 gusting 6 13.9
2019-Dec-07 18:13 249 13.9
2019-Dec-07 18:07 248 0 gusting 2 13.9
2019-Dec-07 18:03 248 0 gusting 2 13.3